Miscellaneous Local Product
Issued by NWS North Platte, NE

Home | Current Version | Previous Version | Graphics & Text | Print | Product List | Glossary On
Versions: 1 2 3 4 5 6 7 8 9 10 11 12 13 14 15 16 17 18 19 20 21 22 23 24 25 26 27 28 29 30 31 32 33 34 35 36 37 38 39 40 41 42 43 44 45 46 47 48 49 50
972
AXUS43 KLBF 272210
MISLBF


WESTERN AND NORTH CENTRAL NEBRASKA HOURLY WEATHER ROUNDUP
NATIONAL WEATHER SERVICE NORTH PLATTE NE
500 PM CDT THU APR 27 2017

NOTE: "FAIR" INDICATES FEW OR NO CLOUDS BELOW 12,000 FEET WITH NO
SIGNIFICANT WEATHER AND/OR OBSTRUCTIONS TO VISIBILITY.

NOTE: STATIONS NOT REPORTING VARIABLES SUCH AS SKY/WEATHER OR
PRESSURE ARE PROVIDED BY RAWS AND APRS NETWORKS AND ARE NOT UNDER
NATIONAL WEATHER SERVICE QUALITY CONTROL.

...OBSERVATIONS IN AND NEAR THE EASTERN PANHANDLE OF NEBRASKA...

CITY           SKY/WX    TMP DP  RH WIND       PRES   REMARKS
PINE RIDGE     CLOUDY    51  35  54 E15       29.58S
CHADRON        CLOUDY    49  34  56 E16       29.56S
ALLIANCE       LGT RAIN  47  39  74 S15       29.55R
SIDNEY         LGT RAIN  49  37  63 NE10      29.53F
CRESCENT LAKE    N/A     47  38  71 E8          N/A
$$

...OBSERVATIONS IN NORTHERN NEBRASKA AND FAR SOUTHERN SOUTH DAKOTA...

CITY           SKY/WX    TMP DP  RH WIND       PRES   REMARKS
WINNER         FAIR      54  32  43 E7        29.66F
VALENTINE      MOSUNNY   56  29  35 E12       29.62F
THEDFORD       CLOUDY    54  36  51 E10       29.60F
AINSWORTH      MOSUNNY   53  34  47 E6        29.63F
O`NEILL        SUNNY     52  31  44 CALM      29.67S
ORD            CLOUDY    52  34  50 E6        29.64F
BROKEN BOW     CLOUDY    53  35  50 SE14G24   29.61F
VALENTINE NWR    N/A     54  33  44 SE8G15      N/A
HALSEY           N/A     55  35  46 SE7G16      N/A
BUTTE            N/A     50  33  53 CALM        N/A
CHAMBERS         N/A     56  35  46 E3          N/A
EWING            N/A     52  37  56 E3          N/A
$$

...OBSERVATIONS IN SOUTHWEST NEBRASKA AND FAR NORTHEAST COLORADO...

CITY           SKY/WX    TMP DP  RH WIND       PRES   REMARKS
HOLYOKE        MOCLDY    54  37  54 E16G23    29.52S
IMPERIAL       LGT RAIN  49  38  65 SE22G32   29.53S
OGALLALA       CLOUDY    58  37  45 SE13G21   29.54S
NORTH PLATTE   PTSUNNY   55  38  52 SE16G24   29.58S
MCCOOK         CLOUDY    54  38  54 E17       29.56F
LEXINGTON      PTSUNNY   54  37  53 E17       29.61F
STAPLETON        N/A     49  37  63 E8          N/A
GOTHENBURG       N/A     52  35  52 E13         N/A
CALLAWAY         N/A     51  38  60 E14         N/A
$$

...OBSERVATIONS IN CENTRAL LINCOLN COUNTY AREA...

CITY           SKY/WX    TMP DP  RH WIND       PRES   REMARKS
N.P. AIRPORT   PTSUNNY   55  38  52 SE16G24   29.58S
N.P. DOWNTOWN    N/A     53  38  56 E7G17       N/A
N.P. SOUTHEAST   N/A     53  37  55 E9G17       N/A
N.P. HILLCREST   N/A     53  38  57 SE16G24     N/A
$$

...SOME OBSERVATIONS FROM AROUND THE REGION...

CITY           SKY/WX    TMP DP  RH WIND       PRES   REMARKS
DENVER         CLOUDY    52  36  54 N14       29.51F
LIMON          CLOUDY    44  37  76 N3        29.48F
ASPEN          CLOUDY    40  25  55 VRB6      29.63F
LARAMIE        CLOUDY    42  22  44 W15G25    29.55R
CASPER         LGT RAIN  37  35  92 N10       29.56R FOG     WCI  30
CHEYENNE       CLOUDY    42  34  73 CALM      29.53F
SCOTTSBLUFF    CLOUDY    48  40  73 SE8       29.55R
GRAND ISLAND   LGT RAIN  54  37  52 S12       29.66F
OMAHA          MOSUNNY   58  34  40 NW8       29.69F
SIOUX FALLS    MOSUNNY   51  34  52 NW13G18   29.67F
PIERRE         SUNNY     50  29  44 CALM      29.66F
RAPID CITY     PTSUNNY   46  32  58 E8        29.63S
BISMARCK       MOSUNNY   53  27  36 E13       29.71S
KANSAS CITY    CLOUDY    61  39  44 SW6       29.72R
HILL CITY      CLOUDY    51  45  79 E13       29.59S
WICHITA        LGT RAIN  57  47  69 SE12      29.65F
DODGE CITY     MOSUNNY   62  42  47 SE24G32   29.50F
OKLAHOMA CITY  PTSUNNY   67  48  50 SE18G35   29.59F
DALLAS         MOSUNNY   76  49  38 S18G25    29.61F
AMARILLO       CLOUDY    72  36  26 SW13      29.46F
$$




USA.gov is the U.S. government's official web portal to all federal, state and local government web resources and services.